| time (UTC) | temp F | wind direction | speed knots | gust knots | rain 1hr in | rain 24hr in | rain mn in | humidity % | barometer mb |
| 20260510044805 | 54 | 227 | 0.0 | 0.0 | 0.00 | 0.00 | 0.00 | 97 | 1010.1 |
| 20260510044301 | 54 | 227 | 0.0 | 0.0 | 0.00 | 0.00 | 0.00 | 97 | 1010.0 |
| 20260510043758 | 54 | 227 | 0.0 | 0.0 | 0.00 | 0.00 | 0.00 | 96 | 1010.2 |
| 20260510043249 | 55 | 226 | 0.0 | 0.0 | 0.00 | 0.00 | 0.00 | 96 | 1010.2 |
| 20260510042746 | 55 | 238 | 0.0 | 0.0 | 0.00 | 0.00 | 0.00 | 95 | 1010.1 |
| 20260510042241 | 55 | 276 | 0.0 | 0.0 | 0.00 | 0.00 | 0.00 | 95 | 1009.9 |
| 20260510041738 | 55 | 325 | 0.0 | 0.0 | 0.00 | 0.00 | 0.00 | 96 | 1009.9 |
| 20260510041230 | 55 | 319 | 0.0 | 0.9 | 0.00 | 0.00 | 0.00 | 96 | 1010.1 |
| 20260510040727 | 56 | 210 | 0.0 | 0.0 | 0.00 | 0.00 | 0.00 | 96 | 1010.4 |
| 20260510040224 | 56 | 210 | 0.0 | 0.0 | 0.00 | 0.00 | 0.00 | 96 | 1010.1 |
| 20260510035719 | 55 | 210 | 0.0 | 0.0 | 0.00 | 0.00 | 0.00 | 96 | 1010.1 |
| 20260510035215 | 55 | 210 | 0.0 | 0.0 | 0.00 | 0.00 | 0.00 | 97 | 1010.0 |
| 20260510034711 | 55 | 210 | 0.0 | 0.0 | 0.00 | 0.00 | 0.00 | 96 | 1010.0 |
| 20260510034210 | 55 | 210 | 0.0 | 0.0 | 0.00 | 0.00 | 0.00 | 96 | 1009.9 |
| 20260510033705 | 55 | 210 | 0.0 | 0.0 | 0.00 | 0.00 | 0.00 | 96 | 1010.0 |
| 20260510033203 | 55 | 210 | 0.0 | 0.0 | 0.00 | 0.00 | 0.00 | 95 | 1009.8 |
| 20260510032659 | 56 | 210 | 0.0 | 0.0 | 0.00 | 0.00 | 0.00 | 95 | 1009.8 |
| 20260510032155 | 56 | 210 | 0.0 | 0.0 | 0.00 | 0.00 | 0.00 | 95 | 1009.7 |
| 20260510031649 | 56 | 210 | 0.0 | 0.0 | 0.00 | 0.00 | 0.00 | 94 | 1009.6 |
| 20260510031146 | 56 | 210 | 0.0 | 0.0 | 0.00 | 0.00 | 0.00 | 93 | 1009.6 |
| 20260510030641 | 56 | 210 | 0.0 | 0.0 | 0.00 | 0.00 | 0.00 | 93 | 1009.7 |
| 20260510030139 | 56 | 210 | 0.0 | 0.0 | 0.00 | 0.00 | 0.00 | 93 | 1009.6 |
| 20260510025636 | 56 | 210 | 0.0 | 0.0 | 0.00 | 0.00 | 0.00 | 93 | 1009.6 |
| 20260510025133 | 57 | 210 | 0.0 | 0.0 | 0.00 | 0.00 | 0.00 | 92 | 1009.6 |
| 20260510024630 | 57 | 210 | 0.0 | 0.0 | 0.00 | 0.00 | 0.00 | 92 | 1009.6 |
| 20260510024126 | 57 | 210 | 0.0 | 0.0 | 0.00 | 0.00 | 0.00 | 91 | 1009.5 |
| 20260510023622 | 57 | 210 | 0.0 | 0.0 | 0.00 | 0.00 | 0.00 | 91 | 1009.5 |
| 20260510023120 | 57 | 210 | 0.0 | 0.0 | 0.00 | 0.00 | 0.00 | 90 | 1009.5 |
| 20260510022619 | 57 | 210 | 0.0 | 0.0 | 0.00 | 0.00 | 0.00 | 90 | 1009.6 |
| 20260510022114 | 57 | 210 | 0.0 | 0.0 | 0.00 | 0.00 | 0.00 | 89 | 1009.4 |
| 20260510021610 | 58 | 210 | 0.0 | 0.0 | 0.00 | 0.00 | 0.00 | 89 | 1009.3 |
| 20260510021108 | 58 | 210 | 0.0 | 0.9 | 0.00 | 0.00 | 0.00 | 89 | 1009.2 |
| 20260510020602 | 58 | 210 | 0.0 | 0.0 | 0.00 | 0.00 | 0.00 | 88 | 1009.1 |
| 20260510020058 | 59 | 210 | 0.0 | 0.0 | 0.00 | 0.00 | 0.00 | 87 | 1009.2 |
| 20260510015554 | 59 | 210 | 0.0 | 0.0 | 0.00 | 0.00 | 0.00 | 86 | 1009.1 |
| 20260510015050 | 59 | 210 | 0.0 | 0.0 | 0.00 | 0.00 | 0.00 | 84 | 1008.9 |
| 20260510014546 | 59 | 210 | 0.0 | 0.0 | 0.00 | 0.00 | 0.00 | 84 | 1009.0 |
| 20260510014044 | 60 | 210 | 0.0 | 0.0 | 0.00 | 0.00 | 0.00 | 83 | 1008.5 |
| 20260510013538 | 60 | 210 | 0.0 | 0.0 | 0.00 | 0.00 | 0.00 | 83 | 1008.7 |
| 20260510013034 | 61 | 210 | 0.9 | 0.9 | 0.00 | 0.00 | 0.00 | 81 | 1008.6 |
| 20260510012528 | 61 | 210 | 0.0 | 0.0 | 0.00 | 0.00 | 0.00 | 79 | 1008.4 |
| 20260510012025 | 62 | 210 | 0.0 | 0.0 | 0.00 | 0.00 | 0.00 | 79 | 1008.6 |
| 20260510011524 | 62 | 210 | 0.0 | 0.0 | 0.00 | 0.00 | 0.00 | 79 | 1008.1 |
| 20260510011020 | 61 | 210 | 0.0 | 0.0 | 0.00 | 0.00 | 0.00 | 76 | 1008.2 |
| 20260510010517 | 62 | 210 | 0.0 | 0.0 | 0.00 | 0.00 | 0.00 | 74 | 1008.0 |
| 20260510010014 | 62 | 210 | 0.0 | 0.0 | 0.00 | 0.00 | 0.00 | 73 | 1008.1 |
| 20260510005510 | 63 | 210 | 0.0 | 0.0 | 0.00 | 0.00 | 0.00 | 72 | 1008.1 |
| 20260510005008 | 64 | 210 | 0.0 | 0.0 | 0.00 | 0.00 | 0.00 | 71 | 1007.9 |
| 20260510004505 | 64 | 210 | 0.0 | 0.0 | 0.00 | 0.00 | 0.00 | 70 | 1008.0 |
| 20260510004003 | 64 | 210 | 0.0 | 0.0 | 0.00 | 0.00 | 0.00 | 68 | 1007.7 |
| 20260510003459 | 65 | 210 | 0.0 | 0.0 | 0.00 | 0.00 | 0.00 | 68 | 1007.7 |
| 20260510002955 | 65 | 210 | 0.0 | 0.0 | 0.00 | 0.00 | 0.00 | 66 | 1007.6 |
| 20260510002451 | 66 | 210 | 0.0 | 0.0 | 0.00 | 0.00 | 0.00 | 65 | 1007.6 |
| 20260510001947 | 67 | 210 | 0.0 | 0.0 | 0.00 | 0.00 | 0.00 | 64 | 1007.3 |
| 20260510001445 | 67 | 210 | 0.0 | 0.0 | 0.00 | 0.00 | 0.00 | 63 | 1007.5 |
| 20260510000943 | 68 | 210 | 0.0 | 0.0 | 0.00 | 0.00 | 0.00 | 61 | 1007.4 |
| 20260510000440 | 69 | 210 | 0.0 | 0.0 | 0.00 | 0.00 | 0.00 | 59 | 1007.4 |
| 20260509235935 | 70 | 207 | 0.9 | 1.7 | 0.00 | 0.00 | 0.00 | 58 | 1007.6 |
| 20260509235432 | 70 | 217 | 0.9 | 1.7 | 0.00 | 0.00 | 0.00 | 58 | 1007.5 |
| 20260509234928 | 71 | 251 | 0.9 | 0.9 | 0.00 | 0.00 | 0.00 | 56 | 1007.4 |
| 20260509234425 | 72 | 251 | 0.0 | 0.9 | 0.00 | 0.00 | 0.00 | 54 | 1007.2 |
| 20260509233923 | 72 | 226 | 0.9 | 1.7 | 0.00 | 0.00 | 0.00 | 52 | 1007.1 |
| 20260509233420 | 73 | 220 | 0.9 | 1.7 | 0.00 | 0.00 | 0.00 | 52 | 1007.3 |
| 20260509232916 | 73 | 224 | 0.9 | 1.7 | 0.00 | 0.00 | 0.00 | 51 | 1007.4 |
| 20260509232414 | 73 | 221 | 0.9 | 1.7 | 0.00 | 0.00 | 0.00 | 51 | 1007.4 |
| 20260509231909 | 73 | 183 | 1.7 | 1.7 | 0.00 | 0.00 | 0.00 | 50 | 1007.4 |
| 20260509231407 | 73 | 181 | 1.7 | 5.2 | 0.00 | 0.00 | 0.00 | 50 | 1007.1 |
| 20260509230905 | 73 | 192 | 0.9 | 4.3 | 0.00 | 0.00 | 0.00 | 49 | 1007.3 |
| 20260509230401 | 74 | 225 | 0.0 | 1.7 | 0.00 | 0.00 | 0.00 | 49 | 1007.3 |
| 20260509225857 | 74 | 230 | 0.9 | 2.6 | 0.00 | 0.00 | 0.00 | 48 | 1007.2 |
| 20260509225354 | 75 | 214 | 1.7 | 1.7 | 0.00 | 0.00 | 0.00 | 47 | 1007.0 |
| 20260509224849 | 75 | 181 | 1.7 | 1.7 | 0.00 | 0.00 | 0.00 | 47 | 1007.0 |
| 20260509224346 | 75 | 254 | 0.9 | 2.6 | 0.00 | 0.00 | 0.00 | 47 | 1007.1 |
| 20260509223843 | 76 | 218 | 0.9 | 1.7 | 0.00 | 0.00 | 0.00 | 46 | 1007.1 |
| 20260509223340 | 76 | 204 | 2.6 | 4.3 | 0.00 | 0.00 | 0.00 | 46 | 1007.2 |
| 20260509222837 | 76 | 185 | 2.6 | 6.1 | 0.00 | 0.00 | 0.00 | 45 | 1007.2 |
| 20260509222332 | 76 | 196 | 3.5 | 5.2 | 0.00 | 0.00 | 0.00 | 46 | 1007.1 |
| 20260509221827 | 76 | 192 | 1.7 | 2.6 | 0.00 | 0.00 | 0.00 | 46 | 1007.3 |
| 20260509221325 | 75 | 188 | 2.6 | 2.6 | 0.00 | 0.00 | 0.00 | 46 | 1007.2 |
| 20260509220825 | 75 | 202 | 0.9 | 4.3 | 0.00 | 0.00 | 0.00 | 47 | 1007.2 |
| 20260509220321 | 75 | 207 | 1.7 | 2.6 | 0.00 | 0.00 | 0.00 | 46 | 1007.3 |
| 20260509215817 | 75 | 181 | 2.6 | 2.6 | 0.00 | 0.00 | 0.00 | 45 | 1007.5 |
| 20260509215314 | 75 | 240 | 0.9 | 6.1 | 0.00 | 0.00 | 0.00 | 45 | 1007.3 |
| 20260509214811 | 76 | 333 | 0.9 | 0.9 | 0.00 | 0.00 | 0.00 | 44 | 1007.2 |
| 20260509214308 | 76 | 249 | 2.6 | 4.3 | 0.00 | 0.00 | 0.00 | 44 | 1007.2 |
| 20260509213805 | 77 | 188 | 2.6 | 5.2 | 0.00 | 0.00 | 0.00 | 44 | 1007.1 |
| 20260509213301 | 77 | 220 | 4.3 | 7.8 | 0.00 | 0.00 | 0.00 | 44 | 1007.1 |
| 20260509212758 | 77 | 193 | 2.6 | 6.1 | 0.00 | 0.00 | 0.00 | 45 | 1007.3 |
| 20260509212255 | 77 | 208 | 1.7 | 4.3 | 0.00 | 0.00 | 0.00 | 45 | 1007.2 |
| 20260509211751 | 76 | 178 | 4.3 | 5.2 | 0.00 | 0.00 | 0.00 | 44 | 1007.1 |
| 20260509211248 | 76 | 201 | 0.9 | 1.7 | 0.00 | 0.00 | 0.00 | 44 | 1007.0 |
| 20260509210744 | 77 | 193 | 3.5 | 6.1 | 0.00 | 0.00 | 0.00 | 42 | 1006.9 |
| 20260509210242 | 77 | 200 | 2.6 | 7.8 | 0.00 | 0.00 | 0.00 | 44 | 1007.0 |
| 20260509205741 | 76 | 210 | 1.7 | 5.2 | 0.00 | 0.00 | 0.00 | 44 | 1007.0 |
| 20260509205236 | 75 | 268 | 0.9 | 1.7 | 0.00 | 0.00 | 0.00 | 46 | 1006.9 |
| 20260509204732 | 75 | 240 | 0.9 | 5.2 | 0.00 | 0.00 | 0.00 | 46 | 1006.8 |
| 20260509204229 | 75 | 174 | 2.6 | 4.3 | 0.00 | 0.00 | 0.00 | 44 | 1007.3 |
| 20260509203725 | 76 | 197 | 2.6 | 8.7 | 0.00 | 0.00 | 0.00 | 46 | 1006.9 |
| 20260509203223 | 77 | 225 | 3.5 | 8.7 | 0.00 | 0.00 | 0.00 | 43 | 1007.1 |
| 20260509202719 | 76 | 114 | 3.5 | 6.1 | 0.00 | 0.00 | 0.00 | 44 | 1007.0 |
| 20260509202214 | 76 | 198 | 4.3 | 5.2 | 0.00 | 0.00 | 0.00 | 45 | 1006.9 |
| 20260509201709 | 75 | 180 | 3.5 | 6.1 | 0.00 | 0.00 | 0.00 | 45 | 1007.0 |
| 20260509201206 | 75 | 221 | 4.3 | 5.2 | 0.00 | 0.00 | 0.00 | 46 | 1007.1 |
| 20260509200703 | 76 | 171 | 1.7 | 4.3 | 0.00 | 0.00 | 0.00 | 47 | 1007.0 |
| 20260509200157 | 76 | 34 | 0.9 | 4.3 | 0.00 | 0.00 | 0.00 | 47 | 1007.1 |
| 20260509195654 | 76 | 225 | 6.1 | 8.7 | 0.00 | 0.00 | 0.00 | 46 | 1007.1 |
| 20260509195149 | 76 | 200 | 3.5 | 5.2 | 0.00 | 0.00 | 0.00 | 47 | 1007.2 |
| 20260509194649 | 76 | 218 | 0.0 | 5.2 | 0.00 | 0.00 | 0.00 | 47 | 1007.3 |
| 20260509194146 | 75 | 198 | 2.6 | 6.1 | 0.00 | 0.00 | 0.00 | 49 | 1007.5 |
| 20260509193642 | 75 | 308 | 2.6 | 2.6 | 0.00 | 0.00 | 0.00 | 47 | 1007.5 |
| 20260509193138 | 76 | 192 | 1.7 | 4.3 | 0.00 | 0.00 | 0.00 | 46 | 1007.5 |
| 20260509192635 | 76 | 194 | 3.5 | 5.2 | 0.00 | 0.00 | 0.00 | 48 | 1007.8 |
| 20260509192129 | 76 | 359 | 1.7 | 2.6 | 0.00 | 0.00 | 0.00 | 49 | 1007.8 |
| 20260509191624 | 74 | 205 | 2.6 | 4.3 | 0.00 | 0.00 | 0.00 | 51 | 1007.7 |
| 20260509191121 | 73 | 194 | 1.7 | 2.6 | 0.00 | 0.00 | 0.00 | 51 | 1008.2 |
| 20260509190617 | 73 | 223 | 2.6 | 6.1 | 0.00 | 0.00 | 0.00 | 53 | 1008.0 |
| 20260509190115 | 73 | 176 | 4.3 | 6.1 | 0.00 | 0.00 | 0.00 | 54 | 1008.0 |
| 20260509185612 | 73 | 188 | 1.7 | 2.6 | 0.00 | 0.00 | 0.00 | 53 | 1008.0 |
| 20260509185108 | 72 | 238 | 4.3 | 7.8 | 0.00 | 0.00 | 0.00 | 54 | 1008.0 |
| 20260509184607 | 72 | 150 | 1.7 | 5.2 | 0.00 | 0.00 | 0.00 | 54 | 1008.1 |
| 20260509184103 | 72 | 200 | 1.7 | 1.7 | 0.00 | 0.00 | 0.00 | 55 | 1008.3 |
| 20260509183558 | 72 | 181 | 2.6 | 7.0 | 0.00 | 0.00 | 0.00 | 53 | 1008.4 |
| 20260509183054 | 72 | 185 | 4.3 | 7.0 | 0.00 | 0.00 | 0.00 | 54 | 1008.3 |
| 20260509182551 | 71 | 193 | 2.6 | 6.1 | 0.00 | 0.00 | 0.00 | 55 | 1008.5 |
| 20260509182048 | 72 | 249 | 2.6 | 6.1 | 0.00 | 0.00 | 0.00 | 55 | 1008.7 |
| 20260509181546 | 71 | 212 | 2.6 | 7.8 | 0.00 | 0.00 | 0.00 | 57 | 1008.7 |
| 20260509181043 | 71 | 237 | 2.6 | 7.8 | 0.00 | 0.00 | 0.00 | 58 | 1008.7 |
| 20260509180538 | 70 | 157 | 3.5 | 5.2 | 0.00 | 0.00 | 0.00 | 57 | 1008.9 |
| 20260509180036 | 71 | 354 | 1.7 | 9.6 | 0.00 | 0.00 | 0.00 | 58 | 1008.9 |
| 20260509175531 | 71 | 188 | 3.5 | 4.3 | 0.00 | 0.00 | 0.00 | 58 | 1008.9 |
| 20260509175029 | 70 | 194 | 5.2 | 6.1 | 0.00 | 0.00 | 0.00 | 59 | 1009.1 |
| 20260509174526 | 70 | 225 | 1.7 | 5.2 | 0.00 | 0.00 | 0.00 | 59 | 1009.4 |
| 20260509174020 | 70 | 210 | 2.6 | 6.1 | 0.00 | 0.00 | 0.00 | 59 | 1009.1 |
| 20260509173515 | 70 | 218 | 0.9 | 1.7 | 0.00 | 0.00 | 0.00 | 58 | 1009.1 |
| 20260509173011 | 69 | 149 | 3.5 | 6.1 | 0.00 | 0.00 | 0.00 | 60 | 1009.5 |
| 20260509172508 | 69 | 215 | 3.5 | 5.2 | 0.00 | 0.00 | 0.00 | 61 | 1009.4 |
| 20260509172004 | 69 | 244 | 0.9 | 2.6 | 0.00 | 0.00 | 0.00 | 60 | 1009.4 |
| 20260509171500 | 68 | 247 | 0.9 | 5.2 | 0.00 | 0.00 | 0.00 | 60 | 1009.5 |
| 20260509170956 | 68 | 182 | 2.6 | 6.1 | 0.00 | 0.00 | 0.00 | 60 | 1009.6 |
| 20260509170453 | 68 | 184 | 5.2 | 7.8 | 0.00 | 0.00 | 0.00 | 60 | 1009.5 |
| 20260509165948 | 69 | 187 | 4.3 | 5.2 | 0.00 | 0.00 | 0.00 | 59 | 1009.5 |
| 20260509165447 | 69 | 305 | 0.9 | 7.0 | 0.00 | 0.00 | 0.00 | 60 | 1009.6 |
| 20260509164943 | 69 | 271 | 0.0 | 4.3 | 0.00 | 0.00 | 0.00 | 59 | 1009.4 |
| 20260509164439 | 69 | 197 | 1.7 | 5.2 | 0.00 | 0.00 | 0.00 | 59 | 1009.5 |
| 20260509163935 | 69 | 202 | 0.9 | 5.2 | 0.00 | 0.00 | 0.00 | 58 | 1009.5 |
| 20260509163433 | 70 | 175 | 2.6 | 8.7 | 0.00 | 0.00 | 0.00 | 58 | 1009.5 |
| 20260509162932 | 69 | 182 | 4.3 | 7.0 | 0.00 | 0.00 | 0.00 | 58 | 1009.5 |
| 20260509162431 | 69 | 148 | 2.6 | 5.2 | 0.00 | 0.00 | 0.00 | 59 | 1009.2 |
| 20260509161926 | 69 | 223 | 2.6 | 6.1 | 0.00 | 0.00 | 0.00 | 59 | 1009.6 |
| 20260509161423 | 68 | 176 | 2.6 | 5.2 | 0.00 | 0.00 | 0.00 | 60 | 1009.6 |
| 20260509160918 | 67 | 204 | 2.6 | 6.1 | 0.00 | 0.00 | 0.00 | 60 | 1009.6 |
| 20260509160414 | 67 | 202 | 8.7 | 12.2 | 0.00 | 0.00 | 0.00 | 59 | 1009.6 |
| 20260509155910 | 67 | 172 | 5.2 | 6.1 | 0.00 | 0.00 | 0.00 | 60 | 1009.8 |
| 20260509155407 | 67 | 201 | 1.7 | 7.0 | 0.00 | 0.00 | 0.00 | 61 | 1009.7 |
| 20260509154903 | 68 | 195 | 2.6 | 7.0 | 0.00 | 0.00 | 0.00 | 60 | 1009.8 |
| 20260509154359 | 68 | 219 | 7.0 | 8.7 | 0.00 | 0.00 | 0.00 | 59 | 1009.8 |
| 20260509153856 | 68 | 195 | 2.6 | 6.1 | 0.00 | 0.00 | 0.00 | 59 | 1009.6 |
| 20260509153353 | 67 | 314 | 3.5 | 5.2 | 0.00 | 0.00 | 0.00 | 60 | 1009.5 |
| 20260509152850 | 66 | 187 | 1.7 | 7.0 | 0.00 | 0.00 | 0.00 | 61 | 1009.6 |
| 20260509152346 | 66 | 196 | 0.9 | 2.6 | 0.00 | 0.00 | 0.00 | 60 | 1009.8 |
| 20260509151843 | 65 | 172 | 4.3 | 7.0 | 0.00 | 0.00 | 0.00 | 61 | 1010.1 |
| 20260509151339 | 66 | 192 | 6.1 | 9.6 | 0.00 | 0.00 | 0.00 | 60 | 1010.1 |
| 20260509150838 | 65 | 206 | 6.1 | 7.0 | 0.00 | 0.00 | 0.00 | 60 | 1010.0 |
| 20260509150336 | 64 | 203 | 2.6 | 4.3 | 0.00 | 0.00 | 0.00 | 62 | 1010.0 |
| 20260509145833 | 65 | 182 | 4.3 | 5.2 | 0.00 | 0.00 | 0.00 | 61 | 1010.1 |
| 20260509145333 | 64 | 172 | 1.7 | 7.0 | 0.00 | 0.00 | 0.00 | 63 | 1009.9 |
| 20260509144830 | 64 | 220 | 2.6 | 2.6 | 0.00 | 0.00 | 0.00 | 62 | 1010.1 |
| 20260509144327 | 63 | 220 | 1.7 | 4.3 | 0.00 | 0.00 | 0.00 | 63 | 1010.3 |
| 20260509143823 | 62 | 229 | 0.0 | 0.9 | 0.00 | 0.00 | 0.00 | 64 | 1010.1 |
| 20260509143321 | 61 | 180 | 2.6 | 4.3 | 0.00 | 0.00 | 0.00 | 64 | 1010.2 |
| 20260509142817 | 60 | 206 | 1.7 | 7.0 | 0.00 | 0.00 | 0.00 | 66 | 1010.1 |
| 20260509142313 | 60 | 184 | 2.6 | 7.0 | 0.00 | 0.00 | 0.00 | 66 | 1010.3 |
| 20260509141809 | 60 | 209 | 2.6 | 6.1 | 0.00 | 0.00 | 0.00 | 66 | 1010.3 |
| 20260509141306 | 60 | 222 | 2.6 | 5.2 | 0.00 | 0.00 | 0.00 | 66 | 1010.6 |
| 20260509140803 | 60 | 216 | 3.5 | 4.3 | 0.00 | 0.00 | 0.00 | 65 | 1010.6 |
| 20260509140300 | 60 | 174 | 3.5 | 4.3 | 0.00 | 0.00 | 0.00 | 65 | 1010.7 |
| 20260509135758 | 59 | 204 | 2.6 | 6.1 | 0.00 | 0.00 | 0.00 | 66 | 1010.9 |
| 20260509135255 | 59 | 216 | 2.6 | 4.3 | 0.00 | 0.00 | 0.00 | 66 | 1010.9 |
| 20260509134752 | 59 | 153 | 2.6 | 6.1 | 0.00 | 0.00 | 0.00 | 66 | 1010.7 |
| 20260509134249 | 58 | 177 | 2.6 | 5.2 | 0.00 | 0.00 | 0.00 | 66 | 1010.9 |
| 20260509133747 | 58 | 183 | 1.7 | 2.6 | 0.00 | 0.00 | 0.00 | 68 | 1010.9 |
| 20260509133243 | 58 | 210 | 2.6 | 4.3 | 0.00 | 0.00 | 0.00 | 67 | 1011.1 |
| 20260509132742 | 57 | 194 | 2.6 | 6.1 | 0.00 | 0.00 | 0.00 | 67 | 1010.8 |
| 20260509132240 | 57 | 199 | 2.6 | 7.0 | 0.00 | 0.00 | 0.00 | 67 | 1011.0 |
| 20260509131736 | 57 | 190 | 6.1 | 7.0 | 0.00 | 0.00 | 0.00 | 66 | 1010.8 |
| 20260509131233 | 57 | 343 | 0.9 | 5.2 | 0.00 | 0.00 | 0.00 | 67 | 1010.6 |
| 20260509130729 | 57 | 212 | 2.6 | 5.2 | 0.00 | 0.00 | 0.00 | 67 | 1010.9 |
| 20260509130225 | 57 | 172 | 2.6 | 6.1 | 0.00 | 0.00 | 0.00 | 67 | 1010.8 |
| 20260509125722 | 56 | 163 | 2.6 | 7.0 | 0.00 | 0.00 | 0.00 | 67 | 1010.9 |
| 20260509125219 | 56 | 240 | 5.2 | 11.3 | 0.00 | 0.00 | 0.00 | 66 | 1011.1 |
| 20260509124715 | 56 | 235 | 1.7 | 5.2 | 0.00 | 0.00 | 0.00 | 67 | 1011.0 |
| 20260509124212 | 56 | 202 | 5.2 | 6.1 | 0.00 | 0.00 | 0.00 | 66 | 1010.8 |
| 20260509123710 | 56 | 187 | 2.6 | 6.1 | 0.00 | 0.00 | 0.00 | 67 | 1010.9 |
| 20260509123207 | 56 | 190 | 3.5 | 6.1 | 0.00 | 0.00 | 0.00 | 67 | 1010.9 |
| 20260509122702 | 56 | 188 | 1.7 | 4.3 | 0.00 | 0.00 | 0.00 | 67 | 1011.1 |
| 20260509122200 | 56 | 198 | 2.6 | 4.3 | 0.00 | 0.00 | 0.00 | 68 | 1010.8 |
| 20260509121656 | 55 | 249 | 0.9 | 5.2 | 0.00 | 0.00 | 0.00 | 67 | 1010.7 |
| 20260509121154 | 55 | 179 | 3.5 | 8.7 | 0.00 | 0.00 | 0.00 | 67 | 1010.7 |
| 20260509120652 | 55 | 217 | 3.5 | 5.2 | 0.00 | 0.00 | 0.00 | 67 | 1010.8 |
| 20260509120149 | 55 | 183 | 0.0 | 6.1 | 0.00 | 0.00 | 0.00 | 67 | 1010.9 |
| 20260509115647 | 55 | 201 | 4.3 | 7.0 | 0.00 | 0.00 | 0.00 | 67 | 1010.7 |
| 20260509115144 | 55 | 184 | 2.6 | 6.1 | 0.00 | 0.00 | 0.00 | 67 | 1010.8 |
| 20260509114642 | 55 | 228 | 1.7 | 4.3 | 0.00 | 0.00 | 0.00 | 67 | 1010.6 |
| 20260509114142 | 55 | 193 | 3.5 | 7.8 | 0.00 | 0.00 | 0.00 | 67 | 1010.7 |
| 20260509113639 | 55 | 194 | 3.5 | 7.0 | 0.00 | 0.00 | 0.00 | 67 | 1010.8 |
| 20260509113136 | 54 | 204 | 1.7 | 5.2 | 0.00 | 0.00 | 0.00 | 67 | 1010.7 |
| 20260509112632 | 54 | 205 | 0.9 | 4.3 | 0.00 | 0.00 | 0.00 | 67 | 1010.5 |
| 20260509112130 | 54 | 195 | 0.9 | 2.6 | 0.00 | 0.00 | 0.00 | 67 | 1010.5 |
| 20260509111627 | 54 | 263 | 0.9 | 2.6 | 0.00 | 0.00 | 0.00 | 67 | 1010.6 |
| 20260509111123 | 54 | 186 | 1.7 | 1.7 | 0.00 | 0.00 | 0.00 | 67 | 1010.6 |
| 20260509110621 | 54 | 220 | 3.5 | 4.3 | 0.00 | 0.00 | 0.00 | 67 | 1010.6 |
| 20260509110118 | 54 | 232 | 0.9 | 2.6 | 0.00 | 0.00 | 0.00 | 67 | 1010.6 |
| 20260509105616 | 54 | 200 | 1.7 | 5.2 | 0.00 | 0.00 | 0.00 | 67 | 1010.6 |
| 20260509105113 | 54 | 205 | 2.6 | 4.3 | 0.00 | 0.00 | 0.00 | 67 | 1010.4 |
| 20260509104610 | 54 | 200 | 1.7 | 4.3 | 0.00 | 0.00 | 0.00 | 67 | 1010.6 |
| 20260509104108 | 54 | 191 | 1.7 | 2.6 | 0.00 | 0.00 | 0.00 | 67 | 1010.5 |
| 20260509103605 | 54 | 211 | 1.7 | 2.6 | 0.00 | 0.00 | 0.00 | 67 | 1010.4 |
| 20260509103103 | 54 | 209 | 2.6 | 5.2 | 0.00 | 0.00 | 0.00 | 67 | 1010.5 |
| 20260509102600 | 54 | 224 | 0.0 | 0.9 | 0.00 | 0.00 | 0.00 | 68 | 1010.3 |
| 20260509102056 | 54 | 228 | 0.9 | 1.7 | 0.00 | 0.00 | 0.00 | 67 | 1010.3 |
| 20260509101553 | 54 | 208 | 0.9 | 1.7 | 0.00 | 0.00 | 0.00 | 68 | 1010.4 |
| 20260509101049 | 54 | 204 | 0.9 | 1.7 | 0.00 | 0.00 | 0.00 | 66 | 1010.6 |
| 20260509100547 | 54 | 221 | 0.9 | 0.9 | 0.00 | 0.00 | 0.00 | 66 | 1010.6 |
| 20260509100044 | 54 | 219 | 0.9 | 0.9 | 0.00 | 0.00 | 0.00 | 66 | 1010.5 |
| 20260509095540 | 54 | 222 | 0.9 | 2.6 | 0.00 | 0.00 | 0.00 | 65 | 1010.5 |
| 20260509095038 | 54 | 260 | 0.0 | 1.7 | 0.00 | 0.00 | 0.00 | 65 | 1010.4 |
| 20260509094534 | 54 | 275 | 0.0 | 1.7 | 0.00 | 0.00 | 0.00 | 64 | 1010.5 |
| 20260509094032 | 55 | 197 | 1.7 | 1.7 | 0.00 | 0.00 | 0.00 | 64 | 1010.4 |
| 20260509093530 | 55 | 209 | 2.6 | 2.6 | 0.00 | 0.00 | 0.00 | 64 | 1010.6 |
| 20260509093027 | 55 | 184 | 1.7 | 4.3 | 0.00 | 0.00 | 0.00 | 63 | 1010.6 |
| 20260509092525 | 55 | 205 | 2.6 | 2.6 | 0.00 | 0.00 | 0.00 | 64 | 1010.6 |
| 20260509092023 | 55 | 231 | 1.7 | 1.7 | 0.00 | 0.00 | 0.00 | 63 | 1010.6 |
| 20260509091520 | 55 | 320 | 0.9 | 2.6 | 0.00 | 0.00 | 0.00 | 63 | 1010.8 |
| 20260509091017 | 55 | 189 | 2.6 | 4.3 | 0.00 | 0.00 | 0.00 | 63 | 1010.9 |
| 20260509090514 | 55 | 228 | 2.6 | 5.2 | 0.00 | 0.00 | 0.00 | 63 | 1010.8 |
| 20260509090012 | 55 | 192 | 1.7 | 6.1 | 0.00 | 0.00 | 0.00 | 63 | 1010.8 |
| 20260509085508 | 55 | 212 | 0.9 | 1.7 | 0.00 | 0.00 | 0.00 | 63 | 1010.8 |
| 20260509085005 | 55 | 198 | 2.6 | 2.6 | 0.00 | 0.00 | 0.00 | 63 | 1011.0 |
| 20260509084502 | 55 | 187 | 4.3 | 5.2 | 0.00 | 0.00 | 0.00 | 62 | 1010.9 |
| 20260509083959 | 55 | 199 | 1.7 | 4.3 | 0.00 | 0.00 | 0.00 | 62 | 1010.8 |
| 20260509083456 | 55 | 190 | 2.6 | 2.6 | 0.00 | 0.00 | 0.00 | 62 | 1011.0 |
| 20260509082952 | 56 | 245 | 0.9 | 5.2 | 0.00 | 0.00 | 0.00 | 61 | 1011.1 |
| 20260509082450 | 56 | 212 | 1.7 | 2.6 | 0.00 | 0.00 | 0.00 | 61 | 1011.0 |
| 20260509081947 | 56 | 209 | 1.7 | 2.6 | 0.00 | 0.00 | 0.00 | 61 | 1011.1 |
| 20260509081444 | 56 | 198 | 2.6 | 2.6 | 0.00 | 0.00 | 0.00 | 61 | 1011.1 |
| 20260509080941 | 56 | 224 | 0.0 | 0.9 | 0.00 | 0.00 | 0.00 | 61 | 1011.2 |
| 20260509080440 | 56 | 223 | 0.0 | 0.9 | 0.00 | 0.00 | 0.00 | 60 | 1011.2 |
| 20260509075937 | 56 | 209 | 1.7 | 2.6 | 0.00 | 0.00 | 0.00 | 60 | 1011.2 |
| 20260509075434 | 56 | 212 | 1.7 | 1.7 | 0.00 | 0.00 | 0.00 | 60 | 1011.0 |
| 20260509074932 | 56 | 221 | 0.9 | 0.9 | 0.00 | 0.00 | 0.00 | 59 | 1011.2 |
| 20260509074429 | 56 | 220 | 0.0 | 1.7 | 0.00 | 0.00 | 0.00 | 59 | 1011.3 |
| 20260509073925 | 56 | 223 | 0.0 | 0.9 | 0.00 | 0.00 | 0.00 | 59 | 1011.2 |
| 20260509073422 | 56 | 237 | 0.0 | 0.9 | 0.00 | 0.00 | 0.00 | 59 | 1011.2 |
| 20260509072918 | 57 | 221 | 0.9 | 0.9 | 0.00 | 0.00 | 0.00 | 59 | 1011.2 |
| 20260509072415 | 57 | 206 | 0.9 | 1.7 | 0.00 | 0.00 | 0.00 | 58 | 1011.3 |
| 20260509071911 | 57 | 214 | 0.9 | 1.7 | 0.00 | 0.00 | 0.00 | 57 | 1011.2 |
| 20260509071408 | 56 | 201 | 0.9 | 1.7 | 0.00 | 0.00 | 0.00 | 59 | 1011.2 |
| 20260509070906 | 56 | 206 | 0.9 | 1.7 | 0.00 | 0.00 | 0.00 | 59 | 1011.1 |
| 20260509070403 | 56 | 210 | 1.7 | 1.7 | 0.00 | 0.00 | 0.00 | 60 | 1011.1 |
| 20260509065858 | 56 | 169 | 0.9 | 1.7 | 0.00 | 0.00 | 0.00 | 59 | 1011.4 |
| 20260509065355 | 56 | 223 | 1.7 | 2.6 | 0.00 | 0.00 | 0.00 | 59 | 1011.4 |
| 20260509064851 | 56 | 242 | 0.0 | 1.7 | 0.00 | 0.00 | 0.00 | 60 | 1011.2 |
| 20260509064349 | 55 | 220 | 0.0 | 0.0 | 0.00 | 0.00 | 0.00 | 60 | 1011.2 |
| 20260509063846 | 55 | 271 | 0.9 | 0.9 | 0.00 | 0.00 | 0.00 | 61 | 1011.2 |
| 20260509063342 | 55 | 213 | 0.9 | 1.7 | 0.00 | 0.00 | 0.00 | 61 | 1011.4 |
| 20260509062839 | 54 | 202 | 0.9 | 2.6 | 0.00 | 0.00 | 0.00 | 62 | 1011.5 |
| 20260509062336 | 53 | 237 | 0.0 | 0.9 | 0.00 | 0.00 | 0.00 | 65 | 1011.5 |
| 20260509061833 | 52 | 323 | 0.0 | 0.0 | 0.00 | 0.00 | 0.00 | 68 | 1011.5 |
| 20260509061332 | 52 | 323 | 0.0 | 0.0 | 0.00 | 0.00 | 0.00 | 68 | 1011.8 |
| 20260509060828 | 52 | 323 | 0.0 | 0.0 | 0.00 | 0.00 | 0.00 | 67 | 1011.8 |
| 20260509060326 | 52 | 314 | 0.0 | 0.9 | 0.00 | 0.00 | 0.00 | 68 | 1011.9 |
| 20260509055821 | 52 | 231 | 0.0 | 0.0 | 0.00 | 0.00 | 0.00 | 70 | 1011.6 |
| 20260509055316 | 52 | 231 | 0.0 | 0.0 | 0.00 | 0.00 | 0.00 | 67 | 1011.8 |
| 20260509054814 | 52 | 231 | 0.0 | 0.0 | 0.00 | 0.00 | 0.00 | 65 | 1011.7 |
| 20260509054310 | 53 | 230 | 0.0 | 0.0 | 0.00 | 0.00 | 0.00 | 65 | 1011.7 |
| 20260509053808 | 53 | 230 | 0.0 | 0.0 | 0.00 | 0.00 | 0.00 | 63 | 1011.9 |
| 20260509053305 | 54 | 230 | 0.0 | 0.0 | 0.00 | 0.00 | 0.00 | 62 | 1011.6 |
| 20260509052803 | 55 | 230 | 0.0 | 0.9 | 0.00 | 0.00 | 0.00 | 60 | 1011.7 |
| 20260509052301 | 55 | 223 | 0.9 | 0.9 | 0.00 | 0.00 | 0.00 | 59 | 1011.8 |
| 20260509051758 | 55 | 239 | 0.0 | 0.9 | 0.00 | 0.00 | 0.00 | 59 | 1011.9 |
| 20260509051256 | 55 | 219 | 0.9 | 0.9 | 0.00 | 0.00 | 0.00 | 59 | 1011.8 |
| 20260509050753 | 56 | 213 | 0.9 | 0.9 | 0.00 | 0.00 | 0.00 | 58 | 1011.8 |
| 20260509050249 | 56 | 210 | 0.9 | 1.7 | 0.00 | 0.00 | 0.00 | 58 | 1011.9 |
| 20260509045746 | 56 | 211 | 0.9 | 1.7 | 0.00 | 0.00 | 0.00 | 57 | 1011.8 |
| 20260509045243 | 56 | 209 | 0.9 | 1.7 | 0.00 | 0.00 | 0.00 | 57 | 1011.5 |